QPF
0.01 0.02 0.03 0.03 0.02 0.02 0.02 0.02 0.02 0.03 0.02 0.01 0.01 0.00 0.01 0.01 0.01 0.01 0.01 0.01 0.01 0.01 0.01 0.01 0.02 0.02 0.02 0.01 0.00 0.00 0.00 0.00 0.00 0.00 0.00 0.00 0.00 0.00 0.01 0.02 0.02 0.02 0.02 0.02
0.01 0.01 0.01 0.02 0.02 0.02 0.02 0.02 0.02 0.02 0.02 0.01 0.01 0.01 0.01 0.00 0.01 0.01 0.00 0.00 0.01 0.01 0.01 0.01 0.01 0.02 0.02 0.01 0.00 0.01 0.00 0.00 0.00 0.01 0.00 0.01 0.01 0.00 0.00 0.01 0.02 0.02 0.02 0.02
0.01 0.00 0.01 0.02 0.02 0.02 0.02 0.01 0.01 0.02 0.02 0.01 0.01 0.01 0.00 0.00 0.00 0.00 0.01 0.01 0.01 0.01 0.01 0.01 0.01 0.02 0.01 0.00 0.00 0.01 0.01 0.01 0.01 0.01 0.01 0.02 0.02 0.01 0.01 0.01 0.02 0.02 0.02 0.02
0.01 0.01 0.01 0.01 0.02 0.02 0.01 0.01 0.01 0.02 0.02 0.01 0.02 0.01 0.00 0.00 0.00 0.00 0.00 0.00 0.01 0.01 0.01 0.01 0.02 0.03 0.02 0.02 0.01 0.02 0.02 0.01 0.01 0.02 0.02 0.01 0.01 0.01 0.02 0.02 0.02 0.02 0.02 0.02
0.00 0.01 0.01 0.01 0.01 0.01 0.01 0.01 0.02 0.02 0.02 0.01 0.01 0.01 0.00 0.00 0.00 0.00 0.00 0.00 0.00 0.00 0.01 0.01 0.02 0.04 0.04 0.03 0.03 0.02 0.02 0.02 0.02 0.02 0.02 0.01 0.02 0.02 0.03 0.03 0.02 0.02 0.02 0.02
0.01 0.01 0.01 0.01 0.01 0.01 0.01 0.02 0.02 0.01 0.02 0.02 0.01 0.01 0.00 0.00 0.00 0.00 0.00 0.00 0.00 0.00 0.00 0.01 0.01 0.02 0.05 0.05 0.03 0.02 0.02 0.02 0.02 0.02 0.03 0.02 0.02 0.03 0.03 0.03 0.03 0.03 0.02 0.02
0.01 0.01 0.01 0.02 0.02 0.02 0.02 0.03 0.03 0.02 0.02 0.01 0.00 0.01 0.00 0.00 0.00 0.00 0.00 0.00 0.00 0.00 0.01 0.01 0.01 0.01 0.02 0.03 0.03 0.01 0.01 0.01 0.01 0.02 0.03 0.02 0.02 0.02 0.03 0.05 0.06 0.07 0.06 0.04
0.02 0.01 0.01 0.01 0.02 0.02 0.02 0.02 0.03 0.02 0.01 0.01 0.00 0.00 0.00 0.00 0.00 0.00 0.00 0.00 0.00 0.00 0.00 0.00 0.01 0.01 0.01 0.01 0.01 0.01 0.01 0.01 0.01 0.01 0.02 0.02 0.01 0.02 0.02 0.04 0.05 0.07 0.08 0.08
0.02 0.01 0.01 0.01 0.01 0.01 0.02 0.02 0.02 0.02 0.01 0.01 0.00 0.00 0.00 0.00 0.00 0.00 0.00 0.00 0.00 0.00 0.00 0.00 0.01 0.01 0.01 0.01 0.01 0.01 0.01 0.01 0.01 0.01 0.02 0.02 0.01 0.02 0.02 0.03 0.04 0.04 0.04 0.04
0.02 0.02 0.01 0.01 0.01 0.01 0.01 0.01 0.02 0.02 0.01 0.01 0.00 0.00 0.00 0.00 0.00 0.00 0.00 0.00 0.00 0.00 0.00 0.00 0.00 0.01 0.01 0.01 0.01 0.02 0.02 0.02 0.02 0.02 0.03 0.03 0.02 0.02 0.02 0.02 0.03 0.03 0.03 0.02
0.02 0.02 0.02 0.01 0.01 0.01 0.01 0.01 0.02 0.02 0.02 0.01 0.00 0.00 0.00 0.00 0.00 0.00 0.00 0.00 0.00 0.00 0.00 0.00 0.00 0.01 0.01 0.01 0.01 0.01 0.02 0.02 0.02 0.02 0.03 0.03 0.02 0.01 0.02 0.02 0.02 0.02 0.03 0.02
0.01 0.02 0.02 0.02 0.00 0.00 0.01 0.01 0.02 0.02 0.01 0.01 0.01 0.00 0.00 0.00 0.00 0.00 0.00 0.00 0.00 0.00 0.00 0.00 0.00 0.01 0.01 0.02 0.03 0.03 0.03 0.02 0.02 0.03 0.03 0.03 0.02 0.02 0.01 0.01 0.02 0.02 0.02 0.02
0.01 0.01 0.02 0.03 0.01 0.01 0.01 0.02 0.02 0.01 0.01 0.01 0.01 0.00 0.00 0.00 0.00 0.00 0.00 0.00 0.00 0.00 0.00 0.00 0.01 0.01 0.03 0.03 0.03 0.03 0.03 0.03 0.03 0.02 0.02 0.02 0.02 0.02 0.01 0.01 0.02 0.03 0.03 0.02
0.01 0.01 0.02 0.03 0.03 0.01 0.01 0.02 0.02 0.01 0.01 0.01 0.00 0.00 0.00 0.00 0.00 0.00 0.00 0.00 0.00 0.00 0.00 0.00 0.01 0.02 0.05 0.05 0.05 0.06 0.04 0.03 0.03 0.02 0.02 0.02 0.02 0.01 0.02 0.02 0.02 0.02 0.02 0.02
0.01 0.01 0.01 0.01 0.02 0.01 0.01 0.01 0.02 0.02 0.01 0.01 0.01 0.00 0.00 0.00 0.00 0.00 0.00 0.00 0.00 0.01 0.01 0.01 0.02 0.02 0.03 0.04 0.04 0.05 0.04 0.03 0.02 0.02 0.01 0.01 0.02 0.02 0.02 0.03 0.03 0.02 0.01 0.01
0.01 0.01 0.01 0.01 0.01 0.01 0.00 0.01 0.01 0.02 0.02 0.01 0.01 0.00 0.00 0.00 0.01 0.01 0.01 0.01 0.01 0.01 0.01 0.02 0.02 0.03 0.03 0.02 0.02 0.02 0.02 0.02 0.01 0.01 0.01 0.01 0.02 0.02 0.02 0.02 0.01 0.01 0.01 0.01
0.00 0.01 0.01 0.01 0.01 0.02 0.02 0.01 0.01 0.01 0.01 0.01 0.01 0.01 0.01 0.01 0.01 0.01 0.01 0.01 0.01 0.01 0.01 0.01 0.02 0.02 0.03 0.04 0.04 0.02 0.02 0.01 0.01 0.01 0.01 0.01 0.02 0.02 0.01 0.01 0.01 0.01 0.01 0.01
0.00 0.01 0.02 0.01 0.01 0.02 0.03 0.02 0.02 0.01 0.01 0.01 0.01 0.01 0.01 0.02 0.01 0.01 0.01 0.01 0.01 0.01 0.01 0.01 0.02 0.02 0.03 0.04 0.07 0.06 0.03 0.01 0.01 0.00 0.01 0.01 0.02 0.01 0.01 0.01 0.01 0.01 0.01 0.01
0.00 0.01 0.02 0.02 0.02 0.03 0.02 0.03 0.03 0.03 0.02 0.01 0.01 0.01 0.01 0.01 0.01 0.01 0.01 0.01 0.01 0.01 0.01 0.01 0.01 0.02 0.03 0.03 0.03 0.06 0.05 0.02 0.01 0.01 0.01 0.01 0.01 0.01 0.01 0.01 0.01 0.01 0.02 0.03
0.00 0.01 0.02 0.02 0.02 0.03 0.03 0.02 0.02 0.05 0.05 0.02 0.01 0.01 0.00 0.01 0.01 0.01 0.01 0.01 0.01 0.01 0.01 0.01 0.01 0.01 0.02 0.01 0.01 0.02 0.03 0.04 0.02 0.01 0.01 0.01 0.01 0.01 0.01 0.01 0.01 0.02 0.02 0.02
0.01 0.01 0.02 0.01 0.01 0.02 0.02 0.02 0.01 0.04 0.06 0.03 0.02 0.01 0.01 0.01 0.01 0.01 0.01 0.01 0.01 0.01 0.01 0.01 0.01 0.01 0.02 0.02 0.01 0.01 0.01 0.02 0.02 0.02 0.01 0.01 0.01 0.01 0.02 0.02 0.01 0.01 0.01 0.01
0.01 0.02 0.01 0.01 0.01 0.02 0.02 0.02 0.02 0.03 0.02 0.02 0.01 0.01 0.01 0.01 0.00 0.00 0.01 0.01 0.01 0.02 0.01 0.01 0.01 0.01 0.02 0.02 0.02 0.01 0.01 0.01 0.02 0.02 0.01 0.01 0.01 0.01 0.01 0.01 0.01 0.02 0.02 0.01
0.02 0.02 0.01 0.01 0.02 0.02 0.02 0.02 0.02 0.01 0.01 0.01 0.01 0.01 0.01 0.01 0.00 0.00 0.01 0.01 0.02 0.02 0.01 0.01 0.01 0.01 0.01 0.02 0.02 0.02 0.01 0.01 0.01 0.01 0.01 0.01 0.01 0.01 0.01 0.01 0.01 0.01 0.01 0.01
0.01 0.01 0.01 0.01 0.01 0.01 0.01 0.01 0.01 0.01 0.01 0.01 0.01 0.01 0.01 0.01 0.01 0.01 0.00 0.00 0.01 0.01 0.01 0.01 0.01 0.01 0.01 0.01 0.01 0.01 0.01 0.01 0.01 0.01 0.01 0.02 0.02 0.01 0.01 0.01 0.02 0.02 0.02 0.02
0.01 0.01 0.01 0.01 0.01 0.01 0.01 0.01 0.01 0.01 0.01 0.01 0.01 0.01 0.01 0.01 0.01 0.01 0.01 0.01 0.00 0.00 0.00 0.00 0.00 0.00 0.00 0.00 0.01 0.02 0.01 0.01 0.01 0.01 0.01 0.01 0.01 0.01 0.01 0.01 0.02 0.02 0.02 0.02
0.00 0.00 0.01 0.01 0.01 0.01 0.01 0.01 0.00 0.00 0.00 0.00 0.01 0.01 0.02 0.01 0.01 0.01 0.01 0.01 0.01 0.00 0.00 0.00 0.00 0.00 0.00 0.00 0.01 0.02 0.02 0.01 0.01 0.01 0.01 0.01 0.01 0.01 0.01 0.02 0.02 0.02 0.02 0.03
MSLP
1017.49 1018.70 1019.92 1021.09 1022.17 1023.15 1024.05 1024.88 1025.67 1026.41 1027.12 1027.77 1028.33 1028.76 1029.05 1029.19 1029.17 1029.04 1028.82 1028.55 1028.27 1028.01 1027.77 1027.57 1027.38 1027.21 1027.04 1026.88 1026.72 1026.58 1026.46 1026.37 1026.30 1026.27 1026.24 1026.22 1026.18 1026.10 1025.99 1025.83 1025.65 1025.45 1025.24 1025.05
1019.14 1020.27 1021.36 1022.40 1023.35 1024.23 1025.06 1025.86 1026.65 1027.42 1028.15 1028.81 1029.36 1029.75 1029.98 1030.04 1029.94 1029.74 1029.48 1029.20 1028.94 1028.71 1028.52 1028.35 1028.19 1028.01 1027.82 1027.60 1027.38 1027.18 1027.01 1026.89 1026.83 1026.81 1026.82 1026.83 1026.81 1026.73 1026.59 1026.39 1026.15 1025.87 1025.60 1025.35
1020.69 1021.71 1022.68 1023.58 1024.42 1025.22 1026.00 1026.81 1027.62 1028.44 1029.20 1029.88 1030.41 1030.76 1030.91 1030.86 1030.67 1030.39 1030.07 1029.76 1029.50 1029.29 1029.13 1029.00 1028.85 1028.67 1028.46 1028.21 1027.94 1027.70 1027.50 1027.36 1027.30 1027.30 1027.33 1027.37 1027.35 1027.27 1027.11 1026.86 1026.55 1026.21 1025.87 1025.57
1022.10 1022.99 1023.81 1024.59 1025.33 1026.08 1026.86 1027.69 1028.56 1029.43 1030.25 1030.94 1031.46 1031.75 1031.81 1031.67 1031.37 1030.98 1030.59 1030.23 1029.95 1029.74 1029.60 1029.48 1029.35 1029.18 1028.95 1028.68 1028.39 1028.12 1027.90 1027.76 1027.71 1027.73 1027.77 1027.82 1027.81 1027.72 1027.52 1027.24 1026.87 1026.47 1026.08 1025.72
1023.35 1024.08 1024.76 1025.42 1026.08 1026.79 1027.59 1028.47 1029.41 1030.35 1031.22 1031.94 1032.43 1032.67 1032.65 1032.40 1031.99 1031.51 1031.03 1030.62 1030.30 1030.09 1029.95 1029.84 1029.72 1029.55 1029.32 1029.04 1028.74 1028.46 1028.24 1028.10 1028.06 1028.08 1028.14 1028.19 1028.18 1028.08 1027.86 1027.53 1027.13 1026.69 1026.24 1025.84
1024.43 1024.99 1025.53 1026.06 1026.65 1027.35 1028.16 1029.09 1030.10 1031.10 1032.02 1032.76 1033.24 1033.43 1033.34 1033.00 1032.51 1031.94 1031.39 1030.93 1030.58 1030.35 1030.21 1030.11 1030.00 1029.84 1029.61 1029.34 1029.04 1028.76 1028.54 1028.40 1028.36 1028.39 1028.45 1028.50 1028.48 1028.36 1028.13 1027.79 1027.36 1026.89 1026.41 1025.98
1025.34 1025.74 1026.12 1026.54 1027.06 1027.73 1028.55 1029.51 1030.56 1031.61 1032.56 1033.30 1033.77 1033.93 1033.79 1033.39 1032.84 1032.23 1031.65 1031.16 1030.80 1030.57 1030.44 1030.35 1030.25 1030.10 1029.88 1029.62 1029.32 1029.05 1028.83 1028.70 1028.65 1028.67 1028.73 1028.77 1028.74 1028.62 1028.37 1028.02 1027.59 1027.11 1026.62 1026.17
1026.07 1026.31 1026.56 1026.88 1027.32 1027.94 1028.75 1029.71 1030.77 1031.82 1032.76 1033.49 1033.94 1034.07 1033.91 1033.50 1032.95 1032.34 1031.77 1031.31 1030.98 1030.77 1030.66 1030.60 1030.52 1030.39 1030.19 1029.93 1029.65 1029.38 1029.16 1029.02 1028.97 1028.97 1029.01 1029.03 1029.00 1028.87 1028.62 1028.28 1027.85 1027.38 1026.90 1026.45
1026.61 1026.72 1026.86 1027.08 1027.46 1028.02 1028.78 1029.70 1030.71 1031.72 1032.61 1033.30 1033.73 1033.85 1033.70 1033.32 1032.81 1032.26 1031.77 1031.37 1031.11 1030.97 1030.91 1030.88 1030.83 1030.73 1030.56 1030.32 1030.05 1029.79 1029.57 1029.42 1029.34 1029.33 1029.34 1029.34 1029.29 1029.15 1028.91 1028.58 1028.17 1027.72 1027.26 1026.81
1026.94 1026.98 1027.04 1027.20 1027.51 1028.00 1028.68 1029.51 1030.43 1031.35 1032.16 1032.79 1033.17 1033.30 1033.17 1032.86 1032.45 1032.02 1031.64 1031.36 1031.21 1031.16 1031.17 1031.20 1031.20 1031.14 1030.99 1030.78 1030.53 1030.27 1030.05 1029.89 1029.79 1029.75 1029.73 1029.70 1029.63 1029.49 1029.25 1028.94 1028.56 1028.14 1027.70 1027.27
1027.08 1027.10 1027.14 1027.26 1027.52 1027.93 1028.52 1029.24 1030.03 1030.81 1031.51 1032.05 1032.38 1032.51 1032.43 1032.22 1031.93 1031.65 1031.42 1031.30 1031.28 1031.34 1031.44 1031.54 1031.60 1031.58 1031.47 1031.29 1031.06 1030.83 1030.61 1030.44 1030.33 1030.25 1030.20 1030.15 1030.05 1029.89 1029.67 1029.37 1029.01 1028.62 1028.21 1027.80
1027.07 1027.13 1027.19 1027.32 1027.54 1027.89 1028.37 1028.95 1029.60 1030.23 1030.79 1031.23 1031.51 1031.62 1031.61 1031.49 1031.35 1031.23 1031.17 1031.20 1031.32 1031.49 1031.69 1031.86 1031.98 1032.00 1031.94 1031.80 1031.61 1031.40 1031.20 1031.04 1030.91 1030.82 1030.75 1030.66 1030.54 1030.38 1030.15 1029.86 1029.53 1029.17 1028.79 1028.40
1027.00 1027.13 1027.25 1027.39 1027.60 1027.90 1028.28 1028.73 1029.22 1029.70 1030.12 1030.45 1030.67 1030.78 1030.81 1030.80 1030.79 1030.82 1030.92 1031.10 1031.34 1031.61 1031.89 1032.13 1032.29 1032.37 1032.35 1032.26 1032.12 1031.95 1031.79 1031.64 1031.53 1031.43 1031.34 1031.23 1031.09 1030.92 1030.69 1030.42 1030.11 1029.77 1029.42 1029.05
1026.94 1027.16 1027.35 1027.53 1027.74 1027.99 1028.28 1028.61 1028.95 1029.28 1029.56 1029.79 1029.96 1030.07 1030.15 1030.23 1030.33 1030.49 1030.71 1031.00 1031.33 1031.68 1032.01 1032.29 1032.50 1032.62 1032.66 1032.62 1032.54 1032.43 1032.32 1032.21 1032.12 1032.03 1031.94 1031.82 1031.68 1031.49 1031.27 1031.01 1030.72 1030.40 1030.08 1029.73
1026.96 1027.27 1027.52 1027.73 1027.94 1028.14 1028.35 1028.57 1028.78 1028.98 1029.16 1029.30 1029.42 1029.53 1029.65 1029.79 1029.98 1030.23 1030.54 1030.90 1031.29 1031.68 1032.04 1032.35 1032.59 1032.75 1032.84 1032.86 1032.85 1032.81 1032.76 1032.71 1032.66 1032.59 1032.51 1032.40 1032.26 1032.08 1031.86 1031.61 1031.34 1031.05 1030.75 1030.43
1027.11 1027.47 1027.75 1027.98 1028.16 1028.31 1028.44 1028.56 1028.67 1028.77 1028.85 1028.94 1029.03 1029.14 1029.28 1029.48 1029.72 1030.03 1030.39 1030.79 1031.20 1031.61 1031.98 1032.29 1032.55 1032.75 1032.89 1032.98 1033.04 1033.08 1033.10 1033.11 1033.11 1033.08 1033.02 1032.93 1032.80 1032.63 1032.43 1032.20 1031.96 1031.70 1031.42 1031.12
1027.39 1027.75 1028.03 1028.22 1028.36 1028.44 1028.49 1028.52 1028.54 1028.56 1028.59 1028.63 1028.71 1028.83 1029.00 1029.23 1029.52 1029.86 1030.25 1030.66 1031.07 1031.46 1031.83 1032.15 1032.42 1032.65 1032.83 1032.99 1033.12 1033.24 1033.33 1033.41 1033.46 1033.47 1033.44 1033.38 1033.26 1033.12 1032.94 1032.74 1032.52 1032.29 1032.05 1031.77
1027.74 1028.05 1028.27 1028.40 1028.45 1028.46 1028.42 1028.37 1028.32 1028.28 1028.27 1028.30 1028.38 1028.52 1028.73 1028.99 1029.31 1029.67 1030.07 1030.47 1030.88 1031.26 1031.62 1031.94 1032.23 1032.49 1032.72 1032.93 1033.13 1033.31 1033.47 1033.60 1033.69 1033.74 1033.75 1033.71 1033.62 1033.50 1033.35 1033.18 1033.00 1032.81 1032.59 1032.34
1028.06 1028.29 1028.41 1028.44 1028.39 1028.29 1028.17 1028.04 1027.94 1027.87 1027.84 1027.88 1027.99 1028.16 1028.40 1028.70 1029.04 1029.43 1029.83 1030.24 1030.64 1031.02 1031.37 1031.71 1032.01 1032.31 1032.58 1032.85 1033.10 1033.33 1033.53 1033.70 1033.83 1033.91 1033.93 1033.91 1033.85 1033.75 1033.64 1033.51 1033.36 1033.20 1033.01 1032.79
1028.24 1028.37 1028.37 1028.28 1028.12 1027.92 1027.72 1027.53 1027.39 1027.31 1027.29 1027.35 1027.49 1027.71 1027.99 1028.32 1028.70 1029.11 1029.53 1029.94 1030.35 1030.74 1031.12 1031.47 1031.81 1032.14 1032.45 1032.76 1033.05 1033.31 1033.55 1033.73 1033.88 1033.96 1034.00 1033.99 1033.95 1033.87 1033.79 1033.69 1033.58 1033.45 1033.29 1033.09
1028.21 1028.22 1028.10 1027.90 1027.64 1027.36 1027.09 1026.87 1026.71 1026.63 1026.64 1026.74 1026.92 1027.18 1027.51 1027.89 1028.30 1028.73 1029.17 1029.61 1030.04 1030.46 1030.86 1031.25 1031.62 1031.99 1032.34 1032.68 1032.99 1033.28 1033.52 1033.71 1033.84 1033.93 1033.96 1033.96 1033.92 1033.87 1033.81 1033.73 1033.65 1033.55 1033.42 1033.24
1027.90 1027.81 1027.59 1027.30 1026.97 1026.63 1026.33 1026.10 1025.95 1025.90 1025.95 1026.10 1026.33 1026.63 1027.00 1027.42 1027.86 1028.32 1028.78 1029.25 1029.71 1030.15 1030.59 1031.02 1031.44 1031.84 1032.23 1032.59 1032.92 1033.20 1033.44 1033.62 1033.74 1033.82 1033.84 1033.84 1033.81 1033.76 1033.72 1033.67 1033.61 1033.53 1033.42 1033.25
1027.31 1027.14 1026.87 1026.52 1026.15 1025.81 1025.51 1025.30 1025.19 1025.19 1025.29 1025.49 1025.76 1026.11 1026.51 1026.95 1027.41 1027.89 1028.38 1028.87 1029.35 1029.83 1030.31 1030.77 1031.23 1031.66 1032.07 1032.45 1032.79 1033.07 1033.30 1033.47 1033.58 1033.64 1033.66 1033.65 1033.63 1033.59 1033.56 1033.52 1033.48 1033.41 1033.32 1033.17
1026.51 1026.29 1025.98 1025.62 1025.27 1024.95 1024.70 1024.55 1024.50 1024.56 1024.72 1024.96 1025.28 1025.66 1026.08 1026.53 1026.99 1027.48 1027.97 1028.46 1028.97 1029.47 1029.97 1030.46 1030.95 1031.41 1031.84 1032.23 1032.57 1032.86 1033.08 1033.25 1033.35 1033.41 1033.44 1033.43 1033.41 1033.39 1033.37 1033.35 1033.31 1033.25 1033.16 1033.02
1025.57 1025.32 1025.02 1024.69 1024.38 1024.12 1023.95 1023.88 1023.92 1024.05 1024.27 1024.56 1024.91 1025.30 1025.72 1026.16 1026.61 1027.08 1027.55 1028.04 1028.54 1029.05 1029.56 1030.07 1030.57 1031.04 1031.49 1031.89 1032.24 1032.53 1032.77 1032.94 1033.06 1033.14 1033.18 1033.20 1033.20 1033.20 1033.19 1033.18 1033.15 1033.09 1033.01 1032.87
1024.59 1024.34 1024.05 1023.78 1023.54 1023.38 1023.32 1023.34 1023.47 1023.68 1023.95 1024.28 1024.64 1025.03 1025.43 1025.84 1026.26 1026.69 1027.14 1027.60 1028.07 1028.56 1029.07 1029.57 1030.07 1030.55 1031.00 1031.41 1031.78 1032.09 1032.35 1032.56 1032.71 1032.83 1032.91 1032.97 1033.01 1033.03 1033.04 1033.04 1033.02 1032.97 1032.88 1032.75
Thickness
5709 5698 5690 5695 5700 5701 5695 5689 5687 5693 5702 5696 5690 5690 5695 5698 5697 5695 5694 5695 5695 5697 5700 5700 5700 5700 5698 5697 5696 5695 5694 5693 5692 5691 5689 5688 5687 5687 5687 5688 5687 5687 5687 5686
5692 5690 5701 5706 5704 5700 5694 5686 5685 5691 5697 5693 5686 5687 5693 5696 5696 5697 5695 5694 5695 5695 5695 5696 5696 5695 5694 5692 5692 5691 5690 5689 5688 5687 5685 5683 5682 5682 5681 5681 5682 5682 5681 5681
5688 5695 5706 5702 5696 5692 5689 5686 5686 5686 5688 5688 5684 5681 5686 5692 5695 5695 5695 5695 5694 5694 5693 5692 5692 5691 5690 5688 5688 5688 5686 5686 5684 5683 5681 5679 5678 5677 5676 5675 5675 5675 5675 5675
5689 5698 5701 5696 5692 5692 5682 5694 5692 5687 5675 5668 5676 5661 5679 5684 5687 5690 5691 5691 5692 5693 5692 5691 5690 5688 5687 5686 5685 5684 5683 5682 5681 5679 5677 5675 5671 5669 5668 5668 5668 5669 5670 5670
5685 5694 5694 5691 5695 5696 5690 5695 5689 5683 5674 5664 5667 5660 5670 5680 5680 5686 5690 5692 5692 5692 5691 5690 5689 5687 5686 5684 5682 5680 5679 5678 5677 5675 5673 5671 5668 5666 5664 5664 5664 5665 5665 5665
5686 5695 5696 5695 5699 5699 5693 5683 5674 5666 5660 5652 5662 5656 5662 5671 5681 5687 5692 5693 5692 5691 5690 5689 5687 5685 5682 5681 5679 5677 5675 5673 5672 5671 5669 5667 5664 5662 5660 5660 5659 5659 5659 5659
5674 5684 5693 5697 5688 5689 5684 5665 5648 5645 5639 5645 5661 5657 5664 5682 5688 5690 5691 5691 5691 5689 5687 5684 5682 5680 5679 5677 5675 5673 5671 5669 5668 5666 5664 5663 5661 5659 5658 5656 5655 5654 5654 5654
5656 5659 5682 5689 5685 5678 5675 5667 5647 5638 5635 5642 5655 5653 5669 5686 5689 5691 5691 5690 5689 5686 5684 5682 5680 5678 5676 5674 5672 5670 5667 5665 5663 5662 5660 5658 5657 5655 5654 5653 5651 5650 5649 5649
5650 5656 5680 5687 5688 5682 5668 5661 5663 5646 5641 5638 5643 5655 5671 5684 5683 5684 5685 5686 5684 5683 5681 5679 5677 5675 5673 5670 5669 5667 5664 5661 5660 5658 5656 5653 5652 5651 5650 5648 5647 5646 5646 5645
5655 5651 5667 5677 5682 5678 5675 5662 5648 5640 5632 5630 5641 5647 5655 5670 5673 5677 5678 5679 5680 5679 5677 5675 5673 5671 5670 5668 5665 5663 5660 5658 5656 5653 5651 5650 5647 5646 5645 5644 5642 5641 5641 5640
5654 5647 5653 5663 5665 5664 5663 5658 5649 5638 5636 5629 5629 5644 5670 5670 5672 5672 5674 5675 5675 5674 5673 5671 5669 5668 5666 5663 5660 5658 5655 5653 5650 5648 5646 5644 5642 5641 5640 5638 5637 5636 5635 5634
5646 5638 5637 5651 5664 5669 5667 5659 5648 5639 5634 5630 5627 5641 5670 5669 5669 5669 5669 5671 5671 5670 5668 5666 5664 5662 5659 5657 5655 5652 5650 5648 5645 5643 5641 5639 5637 5635 5634 5633 5632 5631 5629 5628
5644 5635 5628 5637 5645 5655 5656 5654 5651 5642 5631 5622 5624 5641 5662 5661 5663 5664 5664 5665 5664 5663 5662 5659 5657 5655 5653 5651 5649 5647 5645 5642 5640 5637 5635 5633 5631 5630 5628 5627 5626 5625 5624 5622
5645 5631 5628 5628 5634 5641 5645 5647 5645 5640 5629 5623 5629 5641 5649 5651 5653 5655 5657 5657 5657 5656 5654 5652 5650 5649 5648 5646 5644 5642 5639 5637 5635 5632 5630 5627 5625 5624 5623 5622 5620 5619 5617 5616
5639 5629 5631 5634 5639 5640 5641 5642 5640 5638 5635 5631 5636 5638 5644 5646 5647 5648 5650 5650 5649 5648 5647 5646 5644 5643 5641 5640 5638 5635 5633 5631 5629 5627 5624 5622 5620 5618 5617 5616 5614 5613 5611 5610
5630 5626 5630 5631 5636 5636 5634 5637 5636 5636 5636 5634 5635 5636 5643 5643 5641 5641 5641 5642 5640 5640 5641 5640 5639 5638 5636 5634 5632 5629 5627 5625 5623 5621 5618 5616 5614 5613 5611 5610 5608 5606 5605 5603
5619 5620 5618 5617 5626 5631 5625 5631 5631 5632 5632 5633 5630 5635 5636 5636 5637 5636 5636 5635 5635 5635 5635 5634 5633 5632 5631 5629 5627 5624 5622 5619 5616 5614 5612 5611 5609 5607 5605 5604 5601 5599 5597 5595
5614 5611 5604 5607 5616 5612 5624 5633 5633 5630 5630 5630 5632 5632 5632 5634 5634 5633 5632 5631 5630 5629 5628 5628 5627 5626 5625 5624 5622 5620 5617 5614 5611 5608 5605 5604 5603 5601 5599 5597 5595 5593 5591 5589
5613 5608 5598 5597 5602 5607 5620 5627 5626 5624 5624 5626 5625 5626 5627 5628 5627 5625 5628 5627 5626 5625 5624 5624 5623 5621 5619 5618 5616 5614 5610 5607 5605 5603 5601 5599 5597 5595 5593 5591 5589 5587 5585 5583
5604 5603 5594 5590 5599 5600 5614 5624 5626 5624 5617 5622 5620 5618 5618 5619 5612 5616 5622 5621 5620 5619 5618 5618 5617 5615 5612 5609 5608 5606 5603 5600 5599 5598 5596 5594 5592 5589 5587 5585 5583 5581 5579 5578
5596 5592 5588 5586 5590 5597 5609 5616 5621 5609 5609 5616 5615 5613 5612 5611 5612 5614 5615 5614 5614 5613 5612 5611 5609 5607 5604 5602 5600 5598 5595 5594 5593 5592 5590 5588 5586 5584 5582 5579 5577 5575 5573 5571
5587 5585 5581 5579 5583 5592 5605 5607 5605 5605 5609 5609 5609 5608 5606 5605 5606 5606 5607 5606 5606 5605 5604 5603 5600 5598 5596 5594 5592 5590 5588 5588 5586 5585 5583 5581 5579 5578 5576 5572 5570 5568 5566 5564
5581 5584 5582 5583 5589 5595 5598 5602 5604 5603 5601 5601 5601 5602 5600 5599 5598 5598 5598 5597 5597 5596 5596 5594 5592 5589 5587 5586 5585 5583 5581 5580 5579 5577 5575 5574 5572 5570 5568 5566 5563 5561 5559 5557
5576 5578 5577 5578 5586 5590 5593 5595 5596 5596 5596 5596 5596 5595 5593 5591 5591 5590 5589 5588 5588 5587 5586 5585 5582 5580 5578 5577 5576 5575 5574 5573 5571 5569 5567 5566 5564 5562 5560 5559 5557 5555 5553 5551
5574 5571 5570 5573 5579 5584 5589 5588 5589 5590 5590 5589 5588 5587 5586 5584 5583 5582 5580 5580 5579 5578 5577 5575 5574 5572 5570 5568 5567 5566 5565 5564 5562 5561 5559 5557 5555 5554 5552 5551 5550 5549 5548 5547
5567 5569 5569 5574 5579 5576 5581 5585 5585 5583 5582 5581 5580 5579 5578 5576 5575 5574 5573 5572 5571 5569 5567 5566 5564 5563 5561 5561 5559 5558 5558 5556 5554 5552 5550 5548 5546 5545 5544 5542 5542 5542 5542 5541